Time,TemperatureF,DewpointF,PressureIn,WindDirection,WindDirectionDegrees,WindSpeedMPH,WindSpeedGustMPH,Humidity,HourlyPrecipIn,Conditions,Clouds,dailyrainin,SolarRadiationWatts/m^2,SoftwareType,DateUTC
2013-04-23 00:02:00,70.0,35.0,-100.00,NW,309,4.0,9.0,28,0.00,,,0.00,1.000000,,2013-04-23 07:02:00,
2013-04-23 00:11:00,70.0,35.0,-100.00,NW,309,4.0,9.0,28,0.00,,,0.00,1.000000,,2013-04-23 07:11:00,
2013-04-23 00:42:00,69.0,35.0,-100.00,SSW,198,3.0,5.0,29,0.00,,,0.00,1.000000,,2013-04-23 07:42:00,
2013-04-23 00:52:00,69.0,35.0,-100.00,SSW,198,3.0,5.0,29,0.00,,,0.00,1.000000,,2013-04-23 07:52:00,
2013-04-23 01:01:00,69.0,35.0,-100.00,SSW,198,3.0,5.0,29,0.00,,,0.00,1.000000,,2013-04-23 08:01:00,
2013-04-23 01:11:00,69.0,35.0,-100.00,SSW,198,3.0,5.0,29,0.00,,,0.00,1.000000,,2013-04-23 08:11:00,
2013-04-23 01:42:00,68.0,38.0,-100.00,SW,234,3.0,8.0,33,0.00,,,0.00,1.000000,,2013-04-23 08:42:00,
2013-04-23 01:52:00,68.0,38.0,-100.00,SW,234,3.0,8.0,33,0.00,,,0.00,1.000000,,2013-04-23 08:52:00,
2013-04-23 02:01:00,68.0,38.0,-100.00,SW,234,3.0,8.0,33,0.00,,,0.00,1.000000,,2013-04-23 09:01:00,
2013-04-23 02:11:00,68.0,38.0,-100.00,SW,234,3.0,8.0,33,0.00,,,0.00,1.000000,,2013-04-23 09:11:00,
2013-04-23 02:43:00,69.0,39.0,-100.00,SE,144,10.0,14.0,33,0.00,,,0.00,1.000000,,2013-04-23 09:43:00,
2013-04-23 02:53:00,69.0,39.0,-100.00,SE,144,10.0,14.0,33,0.00,,,0.00,1.000000,,2013-04-23 09:53:00,
2013-04-23 03:02:00,69.0,39.0,-100.00,SE,144,10.0,14.0,33,0.00,,,0.00,1.000000,,2013-04-23 10:02:00,
2013-04-23 03:12:00,69.0,39.0,-100.00,SE,144,10.0,14.0,33,0.00,,,0.00,1.000000,,2013-04-23 10:12:00,
2013-04-23 03:42:00,68.0,42.0,-100.00,SE,145,0.0,14.0,39,0.00,,,0.00,1.000000,,2013-04-23 10:42:00,
2013-04-23 03:52:00,68.0,42.0,-100.00,SE,145,0.0,14.0,39,0.00,,,0.00,1.000000,,2013-04-23 10:52:00,
2013-04-23 04:02:00,68.0,42.0,-100.00,SE,145,0.0,14.0,39,0.00,,,0.00,1.000000,,2013-04-23 11:02:00,
2013-04-23 04:12:00,68.0,42.0,-100.00,SE,145,0.0,14.0,39,0.00,,,0.00,1.000000,,2013-04-23 11:12:00,
2013-04-23 04:43:00,66.0,42.0,-100.00,SE,142,0.0,0.0,42,0.00,,,0.00,1.000000,,2013-04-23 11:43:00,
2013-04-23 04:53:00,66.0,42.0,-100.00,SE,142,0.0,0.0,42,0.00,,,0.00,1.000000,,2013-04-23 11:53:00,
2013-04-23 05:02:00,66.0,42.0,-100.00,SE,142,0.0,0.0,42,0.00,,,0.00,1.000000,,2013-04-23 12:02:00,
2013-04-23 05:12:00,66.0,42.0,-100.00,SE,142,0.0,0.0,42,0.00,,,0.00,1.000000,,2013-04-23 12:12:00,
2013-04-23 05:42:00,65.0,42.0,-100.00,SE,140,0.0,0.0,43,0.00,,,0.00,1.000000,,2013-04-23 12:42:00,
2013-04-23 05:52:00,65.0,42.0,-100.00,SE,140,0.0,0.0,43,0.00,,,0.00,1.000000,,2013-04-23 12:52:00,
2013-04-23 06:01:00,65.0,42.0,-100.00,SE,140,0.0,0.0,43,0.00,,,0.00,1.000000,,2013-04-23 13:01:00,
2013-04-23 06:11:00,65.0,42.0,-100.00,SE,140,0.0,0.0,43,0.00,,,0.00,1.000000,,2013-04-23 13:11:00,
2013-04-23 06:42:00,67.0,44.0,-100.00,SE,131,0.0,0.0,43,0.00,,,0.00,4.000000,,2013-04-23 13:42:00,
2013-04-23 06:52:00,67.0,44.0,-100.00,SE,131,0.0,0.0,43,0.00,,,0.00,4.000000,,2013-04-23 13:52:00,
2013-04-23 07:01:00,67.0,44.0,-100.00,SE,131,0.0,0.0,43,0.00,,,0.00,4.000000,,2013-04-23 14:01:00,
2013-04-23 07:11:00,67.0,44.0,-100.00,SE,131,0.0,0.0,43,0.00,,,0.00,4.000000,,2013-04-23 14:11:00,
2013-04-23 07:42:00,65.0,45.0,-100.00,WSW,239,0.0,0.0,48,0.00,,,0.00,83.000000,,2013-04-23 14:42:00,
2013-04-23 07:52:00,65.0,45.0,-100.00,WSW,239,0.0,0.0,48,0.00,,,0.00,83.000000,,2013-04-23 14:52:00,
2013-04-23 08:01:00,65.0,45.0,-100.00,WSW,239,0.0,0.0,48,0.00,,,0.00,83.000000,,2013-04-23 15:01:00,
2013-04-23 08:11:00,65.0,45.0,-100.00,WSW,239,0.0,0.0,48,0.00,,,0.00,83.000000,,2013-04-23 15:11:00,
2013-04-23 08:43:00,70.0,47.0,-100.00,NW,319,2.0,6.0,44,0.00,,,0.00,308.000000,,2013-04-23 15:43:00,
2013-04-23 08:53:00,70.0,47.0,-100.00,NW,319,2.0,6.0,44,0.00,,,0.00,308.000000,,2013-04-23 15:53:00,
2013-04-23 09:02:00,70.0,47.0,-100.00,NW,319,2.0,6.0,44,0.00,,,0.00,308.000000,,2013-04-23 16:02:00,
2013-04-23 09:12:00,70.0,47.0,-100.00,NW,319,2.0,6.0,44,0.00,,,0.00,308.000000,,2013-04-23 16:12:00,
2013-04-23 09:43:00,76.0,49.0,-100.00,WSW,242,3.0,6.0,38,0.00,,,0.00,545.000000,,2013-04-23 16:43:00,
2013-04-23 09:53:00,76.0,49.0,-100.00,WSW,242,3.0,6.0,38,0.00,,,0.00,545.000000,,2013-04-23 16:53:00,
2013-04-23 10:02:00,76.0,49.0,-100.00,WSW,242,3.0,6.0,38,0.00,,,0.00,545.000000,,2013-04-23 17:02:00,
2013-04-23 10:11:00,76.0,49.0,-100.00,WSW,242,3.0,6.0,38,0.00,,,0.00,545.000000,,2013-04-23 17:11:00,
2013-04-23 10:33:00,84.0,31.0,-100.00,NNE,33,9.0,18.0,15,0.00,,,0.00,747.000000,,2013-04-23 17:33:00,
2013-04-23 10:43:00,84.0,31.0,-100.00,NNE,33,9.0,18.0,15,0.00,,,0.00,747.000000,,2013-04-23 17:43:00,
2013-04-23 10:53:00,84.0,31.0,-100.00,NNE,33,9.0,18.0,15,0.00,,,0.00,747.000000,,2013-04-23 17:53:00,
2013-04-23 11:02:00,84.0,31.0,-100.00,NNE,33,9.0,18.0,15,0.00,,,0.00,747.000000,,2013-04-23 18:02:00,
2013-04-23 11:12:00,84.0,31.0,-100.00,NNE,33,9.0,18.0,15,0.00,,,0.00,747.000000,,2013-04-23 18:12:00,
2013-04-23 11:42:00,86.0,23.0,-100.00,North,3,15.0,25.0,10,0.00,,,0.00,901.000000,,2013-04-23 18:42:00,
2013-04-23 11:52:00,86.0,23.0,-100.00,North,3,15.0,25.0,10,0.00,,,0.00,901.000000,,2013-04-23 18:52:00,
2013-04-23 12:02:00,86.0,23.0,-100.00,North,3,15.0,25.0,10,0.00,,,0.00,901.000000,,2013-04-23 19:02:00,
2013-04-23 12:11:00,86.0,23.0,-100.00,North,3,15.0,25.0,10,0.00,,,0.00,901.000000,,2013-04-23 19:11:00,
2013-04-23 12:42:00,89.0,23.0,-100.00,NNE,13,13.0,24.0,9,0.00,,,0.00,1000.000000,,2013-04-23 19:42:00,
2013-04-23 12:52:00,89.0,23.0,-100.00,NNE,13,13.0,24.0,9,0.00,,,0.00,1000.000000,,2013-04-23 19:52:00,
2013-04-23 13:01:00,89.0,23.0,-100.00,NNE,13,13.0,24.0,9,0.00,,,0.00,1000.000000,,2013-04-23 20:01:00,
2013-04-23 13:11:00,89.0,23.0,-100.00,NNE,13,13.0,24.0,9,0.00,,,0.00,1000.000000,,2013-04-23 20:11:00,
2013-04-23 13:42:00,91.0,18.0,-100.00,NNE,18,12.0,23.0,7,0.00,,,-99.99,1028.000000,,2013-04-23 20:42:00,
2013-04-23 13:52:00,91.0,18.0,-100.00,NNE,18,12.0,23.0,7,0.00,,,-99.99,1028.000000,,2013-04-23 20:52:00,
2013-04-23 14:01:00,91.0,18.0,-100.00,NNE,18,12.0,23.0,7,0.00,,,-99.99,1028.000000,,2013-04-23 21:01:00,
2013-04-23 14:11:00,91.0,18.0,-100.00,NNE,18,12.0,23.0,7,0.00,,,-99.99,1028.000000,,2013-04-23 21:11:00,
2013-04-23 14:43:00,91.0,18.0,-100.00,North,355,14.0,22.0,7,0.00,,,0.00,992.000000,,2013-04-23 21:43:00,
2013-04-23 14:52:00,91.0,18.0,-100.00,North,355,14.0,22.0,7,0.00,,,0.00,992.000000,,2013-04-23 21:52:00,
2013-04-23 15:03:00,91.0,18.0,-100.00,North,355,14.0,22.0,7,0.00,,,0.00,992.000000,,2013-04-23 22:03:00,
2013-04-23 15:12:00,91.0,18.0,-100.00,North,355,14.0,22.0,7,0.00,,,0.00,992.000000,,2013-04-23 22:12:00,
2013-04-23 15:42:00,91.0,15.0,-100.00,North,9,13.0,24.0,6,0.00,,,-99.99,883.000000,,2013-04-23 22:42:00,
2013-04-23 15:52:00,91.0,15.0,-100.00,North,9,13.0,24.0,6,0.00,,,-99.99,883.000000,,2013-04-23 22:52:00,
2013-04-23 16:02:00,91.0,15.0,-100.00,North,9,13.0,24.0,6,0.00,,,-99.99,883.000000,,2013-04-23 23:02:00,
2013-04-23 16:12:00,91.0,15.0,-100.00,North,9,13.0,24.0,6,0.00,,,-99.99,883.000000,,2013-04-23 23:12:00,
2013-04-23 16:42:00,91.0,18.0,-100.00,NNW,342,13.0,21.0,7,0.00,,,0.00,717.000000,,2013-04-23 23:42:00,
2013-04-23 16:52:00,91.0,18.0,-100.00,NNW,342,13.0,21.0,7,0.00,,,0.00,717.000000,,2013-04-23 23:52:00,
2013-04-23 17:01:00,91.0,18.0,-100.00,NNW,342,13.0,21.0,7,0.00,,,0.00,717.000000,,2013-04-24 00:01:00,
2013-04-23 17:11:00,91.0,18.0,-100.00,NNW,342,13.0,21.0,7,0.00,,,0.00,717.000000,,2013-04-24 00:11:00,
2013-04-23 17:42:00,90.0,18.0,-100.00,NNW,339,11.0,18.0,7,0.00,,,0.00,507.000000,,2013-04-24 00:42:00,
2013-04-23 17:52:00,90.0,18.0,-100.00,NNW,339,11.0,18.0,7,0.00,,,0.00,507.000000,,2013-04-24 00:52:00,
2013-04-23 18:01:00,90.0,18.0,-100.00,NNW,339,11.0,18.0,7,0.00,,,0.00,507.000000,,2013-04-24 01:01:00,
2013-04-23 18:11:00,90.0,18.0,-100.00,NNW,339,11.0,18.0,7,0.00,,,0.00,507.000000,,2013-04-24 01:11:00,
2013-04-23 18:43:00,88.0,13.0,-100.00,North,351,11.0,17.0,6,0.00,,,0.00,280.000000,,2013-04-24 01:43:00,
2013-04-23 18:52:00,88.0,13.0,-100.00,North,351,11.0,17.0,6,0.00,,,0.00,280.000000,,2013-04-24 01:52:00,
2013-04-23 19:02:00,88.0,13.0,-100.00,North,351,11.0,17.0,6,0.00,,,0.00,280.000000,,2013-04-24 02:02:00,
2013-04-23 19:12:00,88.0,13.0,-100.00,North,351,11.0,17.0,6,0.00,,,0.00,280.000000,,2013-04-24 02:12:00,
2013-04-23 19:49:00,84.0,16.0,-100.00,North,352,7.0,16.0,8,0.00,,,0.00,75.000000,,2013-04-24 02:49:00,
2013-04-23 20:04:00,84.0,16.0,-100.00,North,352,7.0,16.0,8,0.00,,,0.00,75.000000,,2013-04-24 03:04:00,
2013-04-23 20:12:00,84.0,16.0,-100.00,North,352,7.0,16.0,8,0.00,,,0.00,75.000000,,2013-04-24 03:12:00,
2013-04-23 20:53:00,82.0,15.0,-100.00,North,360,6.0,10.0,8,0.00,,,0.00,2.000000,,2013-04-24 03:53:00,
2013-04-23 20:59:00,82.0,15.0,-100.00,North,360,6.0,10.0,8,0.00,,,0.00,2.000000,,2013-04-24 03:59:00,
2013-04-23 21:02:00,82.0,15.0,-100.00,North,360,6.0,10.0,8,0.00,,,0.00,2.000000,,2013-04-24 04:02:00,
2013-04-23 21:12:00,82.0,15.0,-100.00,North,360,6.0,10.0,8,0.00,,,0.00,2.000000,,2013-04-24 04:12:00,
2013-04-23 21:43:00,80.0,10.0,-100.00,North,7,6.0,8.0,7,0.00,,,0.00,1.000000,,2013-04-24 04:43:00,
2013-04-23 21:53:00,80.0,10.0,-100.00,North,7,6.0,8.0,7,0.00,,,0.00,1.000000,,2013-04-24 04:53:00,
2013-04-23 22:02:00,80.0,10.0,-100.00,North,7,6.0,8.0,7,0.00,,,0.00,1.000000,,2013-04-24 05:02:00,
2013-04-23 22:12:00,80.0,10.0,-100.00,North,7,6.0,8.0,7,0.00,,,0.00,1.000000,,2013-04-24 05:12:00,
2013-04-23 22:42:00,78.0,6.0,-100.00,NNE,17,5.0,8.0,6,0.00,,,0.00,1.000000,,2013-04-24 05:42:00,
2013-04-23 22:52:00,78.0,6.0,-100.00,NNE,17,5.0,8.0,6,0.00,,,0.00,1.000000,,2013-04-24 05:52:00,
2013-04-23 23:02:00,78.0,6.0,-100.00,NNE,17,5.0,8.0,6,0.00,,,0.00,1.000000,,2013-04-24 06:02:00,
2013-04-23 23:42:00,77.0,5.0,-100.00,NNE,22,6.0,7.0,6,0.00,,,0.00,1.000000,,2013-04-24 06:42:00,
2013-04-23 23:52:00,77.0,5.0,-100.00,NNE,22,6.0,7.0,6,0.00,,,0.00,1.000000,,2013-04-24 06:52:00,